sat.trackr.live / text

‹ back to catalog

IRIDIUM 131

NORAD 43079 · 2017-083K

PAYLOAD ACTIVE UNKNOWN

§ Identity

Operator
Country
US
Launch date
2017-12-23
Launch site
AFWTR
Launch vehicle
Mass (kg)
RCS (m²)

Purposes: comms

External: N2YO · Heavens-Above · Gunter

§ Orbital elements

Epoch: 2026-05-25T00:38:07.165248Z

Period
100.40 min
Inclination
86.3961°
Eccentricity
0.0002167
Mean motion
14.34217907 rev/d
Perigee alt
776.1 km
Apogee alt
779.2 km
Semi-major
7,155.8 km
B*
1.4338e-5
RAAN
331.8624°
Arg perigee
90.8295°
Mean anomaly
269.3149°
Rev number
44,078

§ Raw data

IRIDIUM 1311 43079U 17083K   26145.02647182  .00000060  00000+0  14338-4 0  99982 43079  86.3961 331.8624 0002167  90.8295 269.3149 14.34217907440789

JSON: /api/v1/satellites/43079 · /tle

For live sub-satellite position, see the globe view (requires WebGL).

§ Visibility from observer

Set your observer location to see the next 7 days of passes ≥ 10°. The values pass through the URL so the page stays shareable.

No JS? Fill the form by hand. The geolocation button needs JavaScript.